Location: Raleigh
(35.7720°N, 78.6390°W)
Time: 00:00:56
(UTC-05:00)

Amateur Radio Satellites - All Passes

Search period start: 28 November 2014 23:30
Search period end: 29 November 2014 23:30
Location: Raleigh, 35.7720°N, 78.6390°W

Satellite Date Start Highest point End Downlink Frequencies (MHz)
Time Altitude Azimuth
ANTELSAT 28 Nov 23:38:06 23:42:07 33° 288° (WNW) 23:46:13 437.575/2403.000
NANOSAT C BR1 28 Nov 23:44:47 23:48:41 37° 287° (WNW) 23:52:34 145.865
SPROUT 28 Nov 23:45:58 23:50:17 88° 77° (ENE) 23:54:37 437.525
BUGSAT 1 28 Nov 23:49:12 23:53:00 39° 287° (WNW) 23:56:45 437.445
ESTCUBE 1 28 Nov 23:53:25 23:56:17 17° 266° (W) 23:59:10 437.505/2401.250
MaSat-1 28 Nov 23:54:18 23:56:28 33° 65° (ENE) 23:58:43 437.345
QB50P1 28 Nov 23:55:22 23:59:00 29° 289° (WNW) 00:02:38 145.935-145.965
CUSAT 1 28 Nov 23:59:19 00:04:34 69° 263° (W) 00:11:32 437.405
ITUPSAT 1 29 Nov 00:04:59 00:08:43 23° 68° (ENE) 00:12:26 437.325
RS-15 29 Nov 00:05:32 00:16:21 50° 52° (NE) 00:27:35 29.354- 29.394
JUGNU 29 Nov 00:13:55 00:17:29 16° 181° (S) 00:21:03 437.505
SWISSCUBE 29 Nov 00:14:06 00:18:17 31° 70° (ENE) 00:22:30 437.505
POPSAT HIP 1 29 Nov 00:21:38 00:24:05 15° 293° (WNW) 00:26:32 437.405
SRMSAT 29 Nov 00:30:44 00:34:12 16° 175° (S) 00:37:42 437.500
YUBILEINY 29 Nov 00:36:07 00:40:20 15° 78° (ENE) 00:44:32 435.215
DANDE 29 Nov 00:39:48 00:44:31 35° 265° (W) 00:50:34 436.750
AUBIESAT-1 29 Nov 00:42:43 00:46:48 87° 253° (WSW) 00:51:17 437.475
BEESAT 29 Nov 00:43:51 00:48:33 60° 74° (ENE) 00:53:17 436.000
M-CUBED/EXP-1 PRIME 29 Nov 00:50:22 00:54:23 64° 255° (WSW) 00:58:48 437.505
STARS 29 Nov 01:10:24 01:12:39 14° 66° (ENE) 01:14:55 437.465
ITUPSAT 1 29 Nov 01:42:03 01:46:23 33° 262° (W) 01:50:44 437.325
Oscar 19 29 Nov 01:43:19 01:48:30 73° 102° (ESE) 01:53:40 437.125/150
SWISSCUBE 29 Nov 01:52:17 01:56:07 24° 264° (W) 01:59:59 437.505
KKS-1 29 Nov 01:55:24 01:59:49 70° 75° (ENE) 02:04:15 437.445
Gurwin Techsat 1B 29 Nov 01:56:30 02:00:18 20° 94° (E) 02:04:05 435.225
JUGNU 29 Nov 02:03:24 02:05:43 12° 191° (SSW) 02:08:03 437.505
SO-50 29 Nov 02:15:19 02:19:23 35° 113° (ESE) 02:23:34 436.795
RS-15 29 Nov 02:18:06 02:28:37 46° 251° (WSW) 02:39:37 29.354- 29.394
SRMSAT 29 Nov 02:19:07 02:22:38 16° 185° (S) 02:26:10 437.500
BEESAT 29 Nov 02:24:57 02:26:44 12° 268° (W) 02:28:31 436.000
YUBILEINY 29 Nov 02:26:57 02:35:46 88° 95° (E) 02:44:35 435.215
PCSat 29 Nov 02:43:23 02:44:18 10° 44° (NE) 02:45:12 145.827
ITAMSAT 1 29 Nov 02:43:43 02:48:54 79° 285° (WNW) 02:54:03 435.822/435.867
STARS 29 Nov 02:44:29 02:48:43 47° 260° (W) 02:52:57 437.465
HORYU 2 29 Nov 03:08:31 03:12:48 43° 99° (E) 03:17:05 437.375
BEESAT 2 29 Nov 03:12:29 03:13:34 11° 45° (NE) 03:14:38 435.950
AO-7 29 Nov 03:16:49 03:23:06 23° 95° (E) 03:29:21 29.400- 29.500
Oscar 19 29 Nov 03:25:07 03:27:10 12° 298° (WNW) 03:29:13 437.125/150
MOZHAYETS 4 29 Nov 03:25:16 03:28:06 16° 67° (ENE) 03:30:55
ISS 29 Nov 03:34:08 03:35:09 11° 23° (NNE) 03:36:10 145.825
Gurwin Techsat 1B 29 Nov 03:35:24 03:40:25 44° 288° (WNW) 03:45:24 435.225
SO-50 29 Nov 03:56:25 04:00:00 23° 310° (NW) 04:03:41 436.795
AIST 2 29 Nov 04:00:29 04:03:18 17° 49° (NE) 04:06:04 435.215
SRMSAT 29 Nov 04:10:34 04:11:02 10° 195° (SSW) 04:11:30 437.500
PCSat 29 Nov 04:23:15 04:28:41 71° 62° (ENE) 04:34:03 145.827
YUBILEINY 29 Nov 04:28:26 04:33:40 17° 294° (WNW) 04:38:56 435.215
BEESAT 3 29 Nov 04:29:53 04:34:05 73° 60° (ENE) 04:38:12 437.485
HORYU 2 29 Nov 04:46:24 04:49:06 16° 294° (WNW) 04:51:48 437.375
BEESAT 2 29 Nov 04:48:10 04:52:23 78° 242° (WSW) 04:56:31 435.950
O/OREOS (USA 219) 29 Nov 04:55:39 04:59:57 48° 106° (ESE) 05:04:16 437.305
PRISM 29 Nov 04:59:22 05:03:01 29° 71° (ENE) 05:06:42 437.425
MOZHAYETS 4 29 Nov 05:00:34 05:04:55 43° 261° (W) 05:09:20
AO-7 29 Nov 05:08:06 05:16:23 68° 291° (WNW) 05:24:38 29.400- 29.500
ISS 29 Nov 05:09:03 05:12:20 65° 40° (NE) 05:15:36 145.825
CUBESAT XI-V 29 Nov 05:15:56 05:19:04 18° 67° (ENE) 05:22:12 437.345
JAS-2 29 Nov 05:25:52 05:32:41 74° 102° (ESE) 05:38:38 435.910
STRAND 1 29 Nov 05:29:19 05:33:32 26° 68° (ENE) 05:37:45 437.568
AIST 1 29 Nov 05:33:56 05:36:23 15° 73° (ENE) 05:38:49
AIST 2 29 Nov 05:38:03 05:42:10 46° 245° (WSW) 05:46:11 435.215
Cubesat XI-IV 29 Nov 05:49:37 05:54:11 29° 97° (E) 05:58:42 437.490
PCSat 29 Nov 06:09:09 06:11:23 13° 257° (WSW) 06:13:37 145.827
GONETS M04 29 Nov 06:25:48 06:30:54 17° 79° (E) 06:36:00
CUTE-I 29 Nov 06:29:27 06:34:46 71° 102° (ESE) 06:40:02 437.470
PRISM 29 Nov 06:35:32 06:38:34 19° 265° (W) 06:41:37 437.425
O/OREOS (USA 219) 29 Nov 06:37:08 06:39:37 15° 302° (WNW) 06:42:05 437.305
CUBESAT XI-V 29 Nov 06:51:42 06:56:09 41° 262° (W) 07:00:38 437.345
AO-7 29 Nov 07:04:07 07:07:37 13° 310° (NW) 07:11:07 29.400- 29.500
STRAND 1 29 Nov 07:07:58 07:12:32 32° 263° (W) 07:17:08 437.568
AIST 1 29 Nov 07:10:10 07:14:12 38° 268° (W) 07:18:11
JAS-2 29 Nov 07:12:41 07:16:46 17° 301° (WNW) 07:20:35 435.910
Cubesat XI-IV 29 Nov 07:29:34 07:34:11 31° 291° (WNW) 07:38:46 437.490
HO-68 29 Nov 07:41:05 07:44:16 13° 91° (E) 07:47:26 435.675
CUTE-I 29 Nov 08:11:43 08:14:10 13° 298° (WNW) 08:16:37 437.470
GONETS M04 29 Nov 08:17:41 08:26:29 84° 276° (W) 08:35:24
SEEDS 29 Nov 08:23:12 08:26:05 17° 94° (E) 08:28:57 437.485
DOVE 4 29 Nov 08:30:44 08:32:24 12° 93° (E) 08:34:05 437.250
AAUSAT CUBESAT 2 29 Nov 08:32:54 08:35:36 16° 94° (E) 08:38:18 437.432
BRITE-PL 29 Nov 08:36:14 08:39:49 27° 97° (E) 08:43:31 437.365/2234.400
Oscar 11 29 Nov 08:45:29 08:46:31 11° 91° (E) 08:47:33 145.826/435.025
COMPASS 1 29 Nov 08:49:51 08:53:37 30° 97° (E) 08:57:21 437.405
CANX-2 29 Nov 08:55:15 08:59:29 55° 100° (E) 09:03:42 2200.000
ANTELSAT 29 Nov 09:00:34 09:02:18 12° 65° (ENE) 09:04:02 437.575/2403.000
QB50P1 29 Nov 09:12:31 09:13:49 11° 65° (ENE) 09:15:06 145.935-145.965
DX 1 29 Nov 09:14:10 09:17:26 21° 96° (E) 09:20:41 434.975-435.025
UWE-3 29 Nov 09:19:37 09:21:56 14° 93° (E) 09:24:15 435.000/436.395/437.385
HO-68 29 Nov 09:25:31 09:32:44 89° 286° (WNW) 09:39:53 435.675
CUBEBUG 2 29 Nov 09:26:11 09:29:23 20° 95° (E) 09:32:38 437.445
GOMX 1 29 Nov 09:27:02 09:31:15 81° 102° (ESE) 09:35:38 467.674
CUTE 1.7 + AOD 2 29 Nov 09:29:25 09:33:40 62° 284° (WNW) 09:37:55 437.475
POPSAT HIP 1 29 Nov 09:35:42 09:38:55 21° 69° (ENE) 09:42:08 437.405
ZACube-1 29 Nov 09:45:32 09:49:02 24° 96° (E) 09:52:35 437.345
TIGRISAT 29 Nov 09:49:39 09:53:41 45° 74° (ENE) 09:57:45 435.000
DELFI C3 29 Nov 09:53:59 09:58:06 63° 101° (E) 10:02:12 145.870
SEEDS 29 Nov 09:58:07 10:01:58 33° 288° (WNW) 10:05:48 437.485
VELOX 1 29 Nov 09:59:55 10:03:14 21° 95° (E) 10:06:31 145.980
50 SAT 29 Nov 10:01:56 10:04:36 17° 94° (E) 10:07:16 437.505
UNISAT 6 29 Nov 10:05:09 10:09:23 72° 76° (ENE) 10:13:39 437.425
DOVE 4 29 Nov 10:06:18 10:10:21 47° 286° (WNW) 10:14:34 437.250
AAUSAT CUBESAT 2 29 Nov 10:07:31 10:11:21 34° 288° (WNW) 10:15:11 437.432
UKube-1 29 Nov 10:10:06 10:14:27 86° 284° (WNW) 10:18:46 .
POLYITAN 1 29 Nov 10:10:27 10:14:36 56° 75° (ENE) 10:18:45 437.675
QB50P2 29 Nov 10:10:57 10:15:07 56° 75° (ENE) 10:19:17 145.880/145.840
ESTCUBE 1 29 Nov 10:14:07 10:14:39 10° 91° (E) 10:15:11 437.505/2401.250
DUCHIFAT 1 29 Nov 10:14:30 10:18:41 61° 75° (ENE) 10:22:53 145.980
CINEMA 3 29 Nov 10:15:08 10:19:22 64° 284° (WNW) 10:23:46 145.822/145.860
BRITE-PL 29 Nov 10:15:12 10:18:12 20° 290° (WNW) 10:21:16 437.365/2234.400
Oscar 11 29 Nov 10:18:43 10:22:58 55° 285° (WNW) 10:27:13 145.826/435.025
FUNcube-1 29 Nov 10:18:57 10:23:11 60° 101° (E) 10:27:30 145.935
GONETS M04 29 Nov 10:20:08 10:24:39 15° 296° (WNW) 10:29:12
COMPASS 1 29 Nov 10:26:04 10:29:07 19° 291° (WNW) 10:32:10 437.405
AISAT 29 Nov 10:27:44 10:31:58 44° 99° (E) 10:36:10 437.250
CUBEBUG 1 29 Nov 10:28:23 10:30:48 15° 93° (E) 10:33:11 437.445
CANX-2 29 Nov 10:33:29 10:34:55 12° 294° (WNW) 10:36:21 2200.000
NANOSAT C BR1 29 Nov 10:34:30 10:38:45 75° 258° (WSW) 10:43:00 145.865
ANTELSAT 29 Nov 10:34:31 10:38:39 49° 260° (W) 10:42:48 437.575/2403.000
BUGSAT 1 29 Nov 10:36:10 10:40:26 87° 259° (W) 10:44:40 437.445
HUMSAT D 29 Nov 10:36:47 10:40:56 57° 101° (E) 10:45:06 437.325/437.525
QB50P1 29 Nov 10:45:02 10:49:12 55° 260° (W) 10:53:23 145.935-145.965
SO-50 29 Nov 10:49:53 10:53:19 19° 48° (NE) 10:56:46 436.795
DX 1 29 Nov 10:49:55 10:53:39 29° 290° (WNW) 10:57:22 434.975-435.025
UWE-3 29 Nov 10:54:34 10:58:36 42° 286° (WNW) 11:02:45 435.000/436.395/437.385
CUBEBUG 2 29 Nov 11:02:20 11:06:04 30° 288° (WNW) 11:09:54 437.445
POPSAT HIP 1 29 Nov 11:11:01 11:14:39 27° 263° (W) 11:18:17 437.405
HO-68 29 Nov 11:15:35 11:19:25 15° 303° (WNW) 11:23:15 435.675
TISAT 1 29 Nov 11:16:45 11:18:12 12° 92° (E) 11:19:39 437.305
ZACube-1 29 Nov 11:21:50 11:25:19 25° 289° (WNW) 11:28:51 437.345
TIGRISAT 29 Nov 11:28:55 11:30:40 12° 268° (W) 11:32:25 435.000
VELOX 1 29 Nov 11:35:58 11:39:48 30° 289° (WNW) 11:43:38 145.980
50 SAT 29 Nov 11:36:20 11:39:56 31° 288° (WNW) 11:43:34 437.505
SPROUT 29 Nov 11:36:50 11:39:52 19° 95° (E) 11:42:54 437.525
ESTCUBE 1 29 Nov 11:47:24 11:51:53 61° 285° (WNW) 11:56:19 437.505/2401.250
FUNcube-1 29 Nov 11:58:13 11:59:02 11° 295° (WNW) 11:59:51 145.935
CUBEBUG 1 29 Nov 12:03:15 12:07:20 40° 287° (WNW) 12:11:22 437.445
AISAT 29 Nov 12:05:46 12:08:12 15° 294° (WNW) 12:10:37 437.250
DANDE 29 Nov 12:11:50 12:14:00 21° 95° (E) 12:16:04 436.750
HUMSAT D 29 Nov 12:15:23 12:16:14 11° 295° (WNW) 12:17:05 437.325/437.525
VERMONT LUNAR 29 Nov 12:20:18 12:23:40 39° 150° (SSE) 12:27:03 437.305
ITAMSAT 1 29 Nov 12:22:47 12:25:08 13° 63° (ENE) 12:27:29 435.822/435.867
PHONESAT 2.4 29 Nov 12:24:52 12:28:06 29° 148° (SSE) 12:31:22 2401.200-2431.200
SO-50 29 Nov 12:29:25 12:34:11 54° 244° (WSW) 12:38:56 436.795
AUBIESAT-1 29 Nov 12:30:48 12:32:30 12° 95° (E) 12:34:11 437.475
M-CUBED/EXP-1 PRIME 29 Nov 12:37:36 12:40:36 16° 96° (E) 12:43:31 437.505
YUBILEINY 29 Nov 12:41:17 12:49:13 38° 75° (ENE) 12:57:04 435.215
BEESAT 29 Nov 12:48:13 12:51:39 19° 94° (E) 12:55:03 436.000
TISAT 1 29 Nov 12:50:14 12:54:16 47° 286° (WNW) 12:58:18 437.305
Oscar 19 29 Nov 12:57:19 13:02:25 79° 75° (ENE) 13:07:32 437.125/150
SPROUT 29 Nov 13:12:13 13:15:58 30° 289° (WNW) 13:19:43 437.525
CUSAT 1 29 Nov 13:12:25 13:14:22 18° 284° (WNW) 13:16:18 437.405
Gurwin Techsat 1B 29 Nov 13:14:49 13:19:02 25° 67° (ENE) 13:23:15 435.225
MaSat-1 29 Nov 13:20:02 13:21:31 13° 108° (ESE) 13:22:57 437.345
ITUPSAT 1 29 Nov 13:45:11 13:50:00 80° 103° (ESE) 13:54:47 437.325
KKS-1 29 Nov 13:50:51 13:53:45 17° 94° (E) 13:56:38 437.445
SWISSCUBE 29 Nov 13:54:38 13:59:25 73° 285° (WNW) 14:04:10 437.505
VERMONT LUNAR 29 Nov 13:58:33 14:02:05 54° 345° (NNW) 14:05:38 437.305
ITAMSAT 1 29 Nov 13:58:48 14:03:59 70° 258° (WSW) 14:09:12 435.822/435.867
AUBIESAT-1 29 Nov 14:03:02 14:07:53 66° 290° (WNW) 14:12:31 437.475
PHONESAT 2.4 29 Nov 14:03:04 14:06:44 65° 343° (NNW) 14:10:26 2401.200-2431.200
HORYU 2 29 Nov 14:04:47 14:08:33 28° 70° (ENE) 14:12:21 437.375
M-CUBED/EXP-1 PRIME 29 Nov 14:11:07 14:15:52 50° 292° (WNW) 14:20:24 437.505
AO-7 29 Nov 14:13:11 14:19:40 26° 58° (ENE) 14:26:10 29.400- 29.500
BEESAT 29 Nov 14:25:10 14:29:34 37° 289° (WNW) 14:33:56 436.000
RS-15 29 Nov 14:26:25 14:36:13 39° 107° (ESE) 14:45:53 29.354- 29.394
STARS 29 Nov 14:37:31 14:41:37 38° 99° (E) 14:45:43 437.465
YUBILEINY 29 Nov 14:38:01 14:45:57 42° 273° (W) 14:53:52 435.215
MaSat-1 29 Nov 14:53:47 14:55:46 17° 298° (WNW) 14:57:39 437.345
Gurwin Techsat 1B 29 Nov 14:53:54 14:58:45 37° 262° (W) 15:03:39 435.225
O/OREOS (USA 219) 29 Nov 15:08:17 15:12:42 57° 68° (ENE) 15:17:07 437.305
KKS-1 29 Nov 15:26:25 15:30:29 36° 288° (WNW) 15:34:33 437.445
JAS-2 29 Nov 15:33:29 15:39:50 29° 64° (ENE) 15:46:15 435.910
VERMONT LUNAR 29 Nov 15:37:31 15:40:55 37° 3° (N) 15:44:19 437.305
HORYU 2 29 Nov 15:41:45 15:45:11 22° 264° (W) 15:48:39 437.375
PHONESAT 2.4 29 Nov 15:42:22 15:45:51 38° 360° (N) 15:49:21 2401.200-2431.200
AO-7 29 Nov 16:03:34 16:11:46 66° 256° (WSW) 16:20:03 29.400- 29.500
STARS 29 Nov 16:15:00 16:17:46 17° 293° (WNW) 16:20:33 437.465
RS-15 29 Nov 16:37:27 16:48:06 54° 307° (NW) 16:58:47 29.354- 29.394
O/OREOS (USA 219) 29 Nov 16:50:37 16:51:31 11° 262° (W) 16:52:26 437.305
MOZHAYETS 4 29 Nov 16:58:33 17:03:08 55° 100° (E) 17:07:40
Cubesat XI-IV 29 Nov 17:08:48 17:13:40 37° 70° (ENE) 17:18:32 437.490
VERMONT LUNAR 29 Nov 17:16:03 17:19:40 73° 20° (NNE) 17:23:17 437.305
JAS-2 29 Nov 17:16:47 17:24:17 58° 260° (W) 17:32:02 435.910
PHONESAT 2.4 29 Nov 17:21:18 17:24:59 61° 17° (NNE) 17:28:40 2401.200-2431.200
PCSat 29 Nov 17:22:04 17:24:31 13° 103° (ESE) 17:26:57 145.827
CUTE-I 29 Nov 17:48:27 17:53:48 87° 76° (ENE) 17:59:11 437.470
PRISM 29 Nov 18:20:21 18:24:35 76° 102° (ESE) 18:28:46 437.425
BEESAT 3 29 Nov 18:22:42 18:26:10 27° 112° (ESE) 18:29:42 437.485
GONETS M04 29 Nov 18:31:59 18:40:16 43° 76° (ENE) 18:48:26
MOZHAYETS 4 29 Nov 18:37:37 18:39:50 13° 295° (WNW) 18:42:04
BEESAT 2 29 Nov 18:41:06 18:44:56 40° 114° (ESE) 18:48:51 435.950
Cubesat XI-IV 29 Nov 18:49:28 18:53:46 24° 264° (W) 18:58:06 437.490
CUBESAT XI-V 29 Nov 18:51:20 18:55:56 61° 100° (E) 19:00:29 437.345
VERMONT LUNAR 29 Nov 18:54:56 18:57:55 24° 214° (SW) 19:00:53 437.305
RS-15 29 Nov 18:57:13 19:03:47 17° 336° (NNW) 19:10:26 29.354- 29.394
PHONESAT 2.4 29 Nov 19:00:18 19:03:39 32° 212° (SSW) 19:07:00 2401.200-2431.200
PCSat 29 Nov 19:01:52 19:07:15 69° 298° (WNW) 19:12:40 145.827
STRAND 1 29 Nov 19:20:50 19:25:56 76° 285° (WNW) 19:30:59 437.568
AIST 2 29 Nov 19:33:27 19:37:38 77° 118° (ESE) 19:41:55 435.215
AIST 1 29 Nov 19:36:19 19:40:38 56° 279° (W) 19:44:59
COMPASS 1 29 Nov 19:40:16 19:42:42 15° 67° (ENE) 19:45:08 437.405
BRITE-PL 29 Nov 19:44:31 19:48:36 27° 72° (ENE) 19:52:27 437.365/2234.400
CANX-2 29 Nov 19:46:11 19:49:44 27° 71° (ENE) 19:53:19 2200.000
HO-68 29 Nov 19:50:36 19:57:30 52° 69° (ENE) 20:04:25 435.675
BEESAT 3 29 Nov 20:01:02 20:04:21 23° 308° (NW) 20:07:42 437.485
DX 1 29 Nov 20:08:29 20:10:42 14° 65° (ENE) 20:12:55 434.975-435.025
CUTE 1.7 + AOD 2 29 Nov 20:19:34 20:23:44 63° 76° (ENE) 20:27:55 437.475
BEESAT 2 29 Nov 20:20:37 20:23:24 17° 311° (NW) 20:26:13 435.950
CUBEBUG 2 29 Nov 20:24:01 20:25:40 12° 66° (ENE) 20:27:18 437.445
GONETS M04 29 Nov 20:29:04 20:36:51 37° 274° (W) 20:44:35
CUBESAT XI-V 29 Nov 20:31:05 20:32:48 12° 296° (WNW) 20:34:30 437.345
GOMX 1 29 Nov 20:32:26 20:37:07 64° 76° (ENE) 20:41:30 467.674
DELFI C3 29 Nov 20:40:31 20:43:58 27° 71° (ENE) 20:47:25 145.870
ZACube-1 29 Nov 20:40:47 20:42:54 14° 67° (ENE) 20:45:00 437.345
SEEDS 29 Nov 20:47:16 20:51:25 68° 259° (W) 20:55:37 437.485
PCSat 29 Nov 20:51:30 20:51:40 10° 317° (NW) 20:51:49 145.827
AAUSAT CUBESAT 2 29 Nov 20:55:37 20:59:45 74° 259° (WSW) 21:03:56 437.432
VELOX 1 29 Nov 20:56:21 20:58:45 15° 66° (ENE) 21:01:10 145.980
UKube-1 29 Nov 21:02:23 21:06:38 55° 74° (ENE) 21:10:54 .
DOVE 4 29 Nov 21:09:13 21:13:46 66° 259° (W) 21:18:04 437.250
Oscar 11 29 Nov 21:10:29 21:14:46 79° 77° (ENE) 21:19:05 145.826/435.025
FUNcube-1 29 Nov 21:12:49 21:16:32 32° 72° (ENE) 21:20:14 145.935
COMPASS 1 29 Nov 21:14:14 21:18:05 37° 262° (W) 21:21:59 437.405
CINEMA 3 29 Nov 21:14:23 21:18:44 83° 77° (ENE) 21:22:58 145.822/145.860
AIST 2 29 Nov 21:15:27 21:16:48 11° 315° (NW) 21:18:09 435.215
RS-15 29 Nov 21:17:44 21:23:00 14° 15° (NNE) 21:28:20 29.354- 29.394
CANX-2 29 Nov 21:22:30 21:25:39 20° 265° (W) 21:28:49 2200.000
BRITE-PL 29 Nov 21:22:55 21:27:02 26° 263° (W) 21:30:54 437.365/2234.400
AISAT 29 Nov 21:23:33 21:27:25 29° 70° (ENE) 21:31:17 437.250
HUMSAT D 29 Nov 21:26:59 21:30:29 28° 71° (ENE) 21:33:59 437.325/437.525
HO-68 29 Nov 21:39:35 21:45:24 26° 264° (W) 21:51:16 435.675
DX 1 29 Nov 21:42:17 21:46:30 47° 260° (W) 21:50:44 434.975-435.025
TIGRISAT 29 Nov 21:46:03 21:47:57 12° 93° (E) 21:49:51 435.000
ISS 29 Nov 21:48:25 21:51:41 75° 318° (NW) 21:54:58 145.825
UWE-3 29 Nov 21:49:04 21:53:17 73° 258° (WSW) 21:57:26 435.000/436.395/437.385
CUBEBUG 2 29 Nov 21:57:51 22:01:57 48° 260° (W) 22:06:00 437.445
UNISAT 6 29 Nov 22:00:53 22:04:09 19° 95° (E) 22:07:27 437.425
POLYITAN 1 29 Nov 22:01:38 22:03:02 11° 92° (E) 22:04:26 437.675
QB50P2 29 Nov 22:01:54 22:03:21 12° 92° (E) 22:04:48 145.880/145.840
DUCHIFAT 1 29 Nov 22:04:50 22:06:34 12° 93° (E) 22:08:18 145.980
CUSAT 1 29 Nov 22:09:09 22:12:15 15° 75° (ENE) 22:15:43 437.405
JUGNU 29 Nov 22:11:13 22:14:17 15° 172° (S) 22:17:22 437.505
ZACube-1 29 Nov 22:14:57 22:18:55 41° 261° (W) 22:22:51 437.345
DELFI C3 29 Nov 22:16:18 22:19:14 19° 265° (W) 22:22:12 145.870
50 SAT 29 Nov 22:21:55 22:25:55 73° 259° (WSW) 22:29:57 437.505
BUGSAT 1 29 Nov 22:23:09 22:25:42 16° 94° (E) 22:28:13 437.445
NANOSAT C BR1 29 Nov 22:23:39 22:26:54 21° 96° (E) 22:30:09 145.865
ANTELSAT 29 Nov 22:29:19 22:33:36 41° 99° (E) 22:37:57 437.575/2403.000
SPROUT 29 Nov 22:30:35 22:31:50 11° 65° (ENE) 22:33:05 437.525
VELOX 1 29 Nov 22:30:37 22:34:55 47° 260° (W) 22:39:14 145.980
SRMSAT 29 Nov 22:31:38 22:33:00 11° 166° (SSE) 22:34:21 437.500
QB50P1 29 Nov 22:33:50 22:37:30 28° 97° (E) 22:41:09 145.935-145.965
UKube-1 29 Nov 22:42:07 22:43:05 11° 268° (W) 22:44:03 .
ESTCUBE 1 29 Nov 22:44:05 22:48:38 86° 77° (ENE) 22:53:13 437.505/2401.250
FUNcube-1 29 Nov 22:50:15 22:52:57 17° 266° (W) 22:55:38 145.935
DANDE 29 Nov 22:52:18 22:56:56 31° 79° (E) 23:02:49 436.750
CUBEBUG 1 29 Nov 22:56:18 23:00:44 71° 258° (WSW) 23:05:10 437.445
POPSAT HIP 1 29 Nov 22:58:50 23:03:00 58° 101° (E) 23:07:09 437.405
AISAT 29 Nov 23:00:36 23:04:02 22° 264° (W) 23:07:28 437.250
HUMSAT D 29 Nov 23:03:20 23:06:17 19° 265° (W) 23:09:14 437.325/437.525
TIGRISAT 29 Nov 23:20:33 23:24:55 52° 286° (WNW) 23:29:22 435.000
M-CUBED/EXP-1 PRIME 29 Nov 23:25:38 23:27:41 13° 59° (ENE) 23:29:48 437.505
ISS 29 Nov 23:27:29 23:28:48 12° 336° (NNW) 23:30:07 145.825
